Millington, TN

8:31 PM CDT on October 21, 2017 (GMT -0500)
Millington Municipal

Weather History for KNQA - February, 2013

Change the Weather History Date:

Thursday, February 7, 2013

  Actual Average Record
Temperature  
Mean Temperature 55 °F -  
Max Temperature 66 °F 50 °F 77 °F (2017)
Min Temperature 44 °F 34 °F 17 °F (2014)
Degree Days  
Heating Degree Days 10    
Growing Degree Days 5 (Base 50)    
Moisture  
Dew Point 45 °F    
Average Humidity 72    
Maximum Humidity 100    
Minimum Humidity 58    
Precipitation  
Precipitation 0.00 in - - ()
Sea Level Pressure  
Sea Level Pressure 29.96 in    
Wind  
Wind Speed 4 mph (SE)    
Max Wind Speed 7 mph    
Max Gust Speed -    
Visibility 10 miles    
Events Rain    
Averages and records for this station are not official NWS values.
T = Trace of Precipitation, MM = Missing Value Source: NWS Daily Summary

Daily Weather History Graph

Daily Weather History Graph

Search for Another Location

Airport or City:

Trip Planner

Search our weather history database for the weather conditions in past years. The results will help you decide how hot, cold, wet, or windy it might be!

Date:

Astronomy

Feb. 07, 2013 Rise Set
Actual Time 6:53 AM CST 5:34 PM CST
Civil Twilight 6:27 AM CST 6:00 PM CST
Nautical Twilight 5:57 AM CST 6:30 PM CST
Astronomical Twilight 5:27 AM CST 7:00 PM CST
Moon 4:29 AM CST (2/7) 3:01 PM CST (2/7)
Length of Visible Light 11h 33m
Length of Day
10h 40m
Waning Crescent, 9% of the Moon is Illuminated
Feb 7
Waning Crescent
Feb 10
New
Feb 17
First Quarter
Feb 25
Full
Mar 4
Last Quarter

Hourly Weather History & Observations

Time (CST) Temp. Windchill Dew Point Humidity Pressure Visibility Wind Dir Wind Speed Gust Speed Precip Events Conditions
12:55 AM 50.0 °F - 35.6 °F 58% 30.05 in 10.0 mi East 3.5 mph - N/A   Mostly Cloudy
1:55 AM 48.2 °F - 35.6 °F 62% 30.03 in 10.0 mi East 3.5 mph - N/A   Mostly Cloudy
2:15 AM 48.2 °F - 35.6 °F 62% 30.03 in 10.0 mi East 4.6 mph - N/A   Clear
2:35 AM 46.4 °F 45.2 °F 35.6 °F 66% 30.03 in 10.0 mi East 3.5 mph - N/A   Clear
2:55 AM 46.4 °F 45.2 °F 35.6 °F 66% 30.03 in 10.0 mi East 3.5 mph - N/A   Scattered Clouds
3:15 AM 46.4 °F 44.3 °F 35.6 °F 66% 30.02 in 10.0 mi East 4.6 mph - N/A   Scattered Clouds
3:35 AM 44.6 °F 42.2 °F 35.6 °F 71% 30.02 in 10.0 mi East 4.6 mph - N/A   Clear
3:55 AM 44.6 °F 42.2 °F 35.6 °F 71% 30.01 in 10.0 mi East 4.6 mph - N/A   Clear
4:15 AM 44.6 °F 42.2 °F 35.6 °F 71% 30.01 in 10.0 mi East 4.6 mph - N/A   Clear
4:35 AM 46.4 °F 45.2 °F 37.4 °F 71% 30.00 in 10.0 mi East 3.5 mph - N/A   Mostly Cloudy
4:55 AM 44.6 °F 42.2 °F 37.4 °F 76% 30.00 in 10.0 mi East 4.6 mph - N/A   Partly Cloudy
5:55 AM 44.6 °F 42.2 °F 37.4 °F 76% 29.98 in 10.0 mi East 4.6 mph - N/A   Scattered Clouds
6:55 AM 46.4 °F 44.3 °F 39.2 °F 76% 29.97 in 10.0 mi East 4.6 mph - N/A   Mostly Cloudy
7:55 AM 48.2 °F - 41.0 °F 76% 29.98 in 10.0 mi ESE 3.5 mph - N/A   Overcast
8:55 AM 55.4 °F - 46.4 °F 72% 29.97 in 10.0 mi SE 4.6 mph - N/A   Mostly Cloudy
9:55 AM 62.6 °F - 51.8 °F 68% 29.97 in 10.0 mi SE 6.9 mph - N/A   Mostly Cloudy
10:55 AM 64.4 °F - 51.8 °F 64% 29.96 in 10.0 mi Variable 4.6 mph - N/A   Mostly Cloudy
11:55 AM 62.6 °F - 51.8 °F 68% 29.96 in 10.0 mi South 5.8 mph - N/A   Mostly Cloudy
12:55 PM 64.4 °F - 51.8 °F 64% 29.94 in 10.0 mi South 4.6 mph - N/A   Mostly Cloudy
1:55 PM 66.2 °F - 53.6 °F 64% 29.90 in 10.0 mi SW 5.8 mph - N/A   Mostly Cloudy
2:55 PM 66.2 °F - 51.8 °F 60% 29.89 in 10.0 mi SW 5.8 mph - N/A   Mostly Cloudy
3:55 PM 66.2 °F - 51.8 °F 60% 29.89 in 10.0 mi SW 4.6 mph - N/A   Mostly Cloudy
4:55 PM 64.4 °F - 53.6 °F 68% 29.89 in 10.0 mi WSW 5.8 mph - N/A   Mostly Cloudy
5:55 PM 62.6 °F - 53.6 °F 72% 29.90 in 10.0 mi WSW 4.6 mph - N/A   Mostly Cloudy
6:55 PM 62.6 °F - 53.6 °F 72% 29.90 in 10.0 mi WSW 3.5 mph - N/A   Overcast
7:55 PM 60.8 °F - 53.6 °F 77% 29.89 in 10.0 mi Calm Calm - N/A   Overcast
8:55 PM 59.0 °F - 53.6 °F 82% 29.90 in 10.0 mi Calm Calm - N/A   Overcast
9:55 PM 57.2 °F - 55.4 °F 94% 29.91 in 7.0 mi SW 3.5 mph - N/A Rain Light Rain
10:55 PM 57.2 °F - 55.4 °F 94% 29.91 in 7.0 mi Calm Calm - N/A Rain Light Rain
11:55 PM 57.2 °F - 57.2 °F 100% 29.93 in 5.0 mi Calm Calm - N/A Rain Light Rain